Find Starlink 5332

NORAD ID: 55285 Int'l Des: 2023-010 Owner: SPXS Country: US Constellation: starlink operational
LEOCIRCULAR

リアルタイム位置

3D地球を読み込み中...

Starlink 5332について

説明を読み込み中...

次回通過

Passes for default location (London). Set your location on the main map for personalized predictions.

高度履歴

Loading altitude history...

軌道要素

1 55285U 23010S 26126.70179176 .00057462 00000-0 47301-2 0 9997
2 55285 70.0008 218.1043 0002279 199.6635 160.4436 14.98771478183338
Epoch: May 6, 2026 • Age: 18 hours

現在のステータス

高度 574.0 km
速度 7.57 km/s
衛星直下点 3.73°N, 164.87°W
打ち上げ日 Jan 19, 2023
運用期間 3.2 years
タイプ internet

技術仕様

分類 Payload
質量 305.00 kg
乾燥質量 290.00 kg
総質量 305.00 kg
長さ 0.20 m
直径 2.80 m
スパン 9.00 m
形状 Box + pan
製造者 SPXS
バスタイプ Starlink
フェーズステータス In Orbit
所有者/国 SPXS/US

Most Searched